1528948800.9,61356,19.0,73426.3,2.69,1.93,1.97,0,*73
1528948802.11,61357,19.0,73424.5,2.69,1.83,1.83,0,*76
1528948803.36,61358,19.0,73422.3,2.69,1.51,1.51,0,*79
1528948804.58,61359,19.0,73420.5,2.69,1.47,1.41,0,*7E
1528948805.83,61360,19.0,73420.0,2.69,1.59,1.59,0,*72
1528948807.07,61361,19.0,73416.0,2.67,1.63,1.63,0,*7D
1528948808.28,61362,19.0,73418.0,2.67,1.83,1.75,0,*77
1528948809.5,61363,19.0,73410.5,2.67,1.75,1.63,0,*78
1528948810.72,61364,19.0,73400.5,2.67,1.41,1.51,0,*79
1528948811.95,61365,19.0,73404.8,2.67,1.83,1.85,0,*7F
1528948813.21,61366,19.0,73416.8,2.67,1.85,1.85,0,*7A
1528948814.47,61367,19.0,73410.3,2.67,1.85,1.85,0,*7B
1528948815.67,61368,19.0,73412.5,2.65,1.67,1.79,0,*79
1528948816.89,61369,19.0,73410.3,2.65,1.43,1.43,0,*77
1528948818.08,61370,19.0,73402.3,2.63,1.41,1.41,0,*79
1528948819.3,61371,19.0,73404.3,2.65,1.59,1.59,0,*7E
1528948820.55,61372,19.0,73400.5,2.63,1.51,1.51,0,*7B
1528948821.79,61373,19.0,73400.8,2.63,1.63,1.63,0,*7A
1528948823.02,61374,19.0,73400.5,2.65,1.59,1.55,0,*77
1528948824.27,61375,19.0,73388.0,2.63,1.21,1.21,0,*7C
1528948825.5,61376,19.0,73390.3,2.63,1.41,1.33,0,*7A
1528948826.74,61377,19.0,73392.3,2.59,1.47,1.47,0,*77
1528948827.99,61378,19.0,73388.5,2.59,1.59,1.51,0,*70
1528948829.22,61379,19.0,73392.5,2.61,1.85,1.85,0,*72
1528948830.45,61380,19.0,73400.0,2.61,1.89,1.85,0,*78
1528948831.69,61381,19.0,73396.5,2.59,1.51,1.59,0,*76
1528948832.95,61382,19.0,73394.8,2.59,1.17,1.17,0,*7D
1528948834.2,61383,19.0,73400.8,2.59,1.17,1.25,0,*7D
1528948835.44,61384,19.0,73400.3,2.61,1.29,1.21,0,*78
1528948836.69,61385,19.0,73394.5,2.59,1.17,1.25,0,*7B
1528948837.92,61386,19.0,73388.0,2.57,1.25,1.25,0,*77
1528948839.14,61387,19.0,73388.8,2.57,1.51,1.59,0,*7E
1528948840.32,61388,19.0,73390.0,2.53,1.79,1.79,0,*7D
1528948841.51,61389,19.0,73394.3,2.57,1.83,1.89,0,*72
1528948842.73,61390,19.0,73398.3,2.57,1.97,1.89,0,*7F
1528948843.91,61391,19.0,73390.3,2.53,1.79,1.79,0,*75
1528948845.14,61392,19.0,73388.3,2.57,1.63,1.63,0,*72
1528948846.31,61393,19.0,73392.0,2.57,1.83,1.83,0,*73
1528948847.51,61394,19.0,73396.5,2.57,1.83,1.89,0,*7E
1528948848.72,61395,19.0,73386.8,2.57,1.89,1.89,0,*75
1528948849.94,61396,19.0,73394.0,2.57,1.89,1.89,0,*76
1528948851.17,61397,19.0,73392.0,2.57,1.85,1.85,0,*77
1528948852.34,61398,19.0,73396.3,2.57,1.83,1.83,0,*78
1528948853.57,61399,19.0,73398.5,2.57,1.85,1.89,0,*75
1528948854.79,61400,19.0,73398.5,2.57,1.97,1.97,0,*7E
1528948856.03,61401,19.0,73392.0,2.57,1.85,1.85,0,*7F
1528948857.25,61402,19.0,73388.5,2.57,1.89,1.85,0,*70
1528948858.48,61403,19.0,73388.3,2.57,1.85,1.85,0,*7D
1528948859.73,61404,19.0,73390.8,2.59,1.89,1.97,0,*7B
1528948860.95,61405,19.0,73386.8,2.57,1.97,1.97,0,*7B
1528948862.18,61406,19.0,73390.3,2.57,1.97,2.01,0,*74
1528948863.4,61407,19.0,73390.3,2.57,1.97,1.97,0,*79
1528948864.63,61408,19.0,73376.8,2.57,1.89,1.85,0,*7A
1528948865.87,61409,19.0,73380.3,2.59,1.89,1.89,0,*79
1528948867.13,61410,19.0,73390.8,2.59,1.85,1.85,0,*71
1528948868.38,61411,19.0,73394.0,2.59,1.85,1.89,0,*7C
1528948869.6,61412,19.0,73386.0,2.61,1.93,2.01,0,*70
1528948870.82,61413,19.0,73388.8,2.61,1.93,1.89,0,*72
1528948872.07,61414,19.0,73388.0,2.59,1.85,1.89,0,*79
1528948873.32,61415,19.0,73394.5,2.59,1.85,1.89,0,*78
1528948874.56,61416,19.0,73388.5,2.59,1.89,1.97,0,*78
1528948875.81,61417,19.0,73398.3,2.59,1.97,1.97,0,*76
1528948877.06,61418,19.0,73392.5,2.59,2.01,1.97,0,*75
1528948878.31,61419,19.0,73398.3,2.59,2.01,2.01,0,*78
1528948879.57,61420,19.0,73402.3,2.59,2.13,2.13,0,*72
1528948880.8,61421,19.0,73404.8,2.61,2.01,2.13,0,*7B
1528948882.05,61422,19.0,73404.0,2.59,1.97,1.97,0,*70
1528948883.27,61423,19.0,73402.8,2.61,2.01,2.05,0,*7E
1528948884.5,61424,19.0,73404.5,2.61,2.01,2.05,0,*79
1528948885.73,61425,19.0,73408.0,2.61,2.17,2.13,0,*78
1528948886.98,61426,19.0,73412.8,2.59,2.09,2.09,0,*74
1528948888.21,61427,19.0,73408.0,2.61,2.13,2.17,0,*7A
1528948889.44,61428,19.0,73406.5,2.61,2.13,2.17,0,*75
1528948890.67,61429,19.0,73408.3,2.61,2.25,2.17,0,*71
1528948891.9,61430,19.0,73408.3,2.61,2.17,2.17,0,*78
1528948893.14,61431,19.0,73408.5,2.61,2.17,2.13,0,*7D
1528948894.37,61432,19.0,73410.0,2.61,2.17,2.13,0,*7E
1528948895.61,61433,19.0,73410.0,2.61,2.17,2.13,0,*7F
1528948896.84,61434,19.0,73404.8,2.61,2.13,2.17,0,*78
1528948898.07,61435,19.0,73406.8,2.61,2.17,2.13,0,*79
1528948899.3,61436,19.0,73400.5,2.61,2.13,2.13,0,*7E
1528948900.55,61437,19.0,73404.0,2.63,2.13,2.13,0,*7D
1528948901.78,61438,19.0,73404.5,2.61,2.13,2.13,0,*70
1528948903.03,61439,19.0,73396.0,2.63,2.01,2.01,0,*73
1528948904.27,61440,19.0,73400.0,2.63,1.89,1.93,0,*76
1528948905.52,61441,19.0,73398.8,2.63,2.05,2.05,0,*7C
1528948906.77,61442,19.0,73400.3,2.63,2.17,2.13,0,*7B
1528948908.02,61443,19.0,73402.3,2.63,2.25,2.17,0,*7F
1528948909.28,61444,19.0,73396.8,2.63,2.17,2.13,0,*7D
1528948910.53,61445,19.0,73396.8,2.63,2.13,2.13,0,*78
1528948911.78,61446,19.0,73396.0,2.63,2.13,2.13,0,*7B
1528948913.04,61447,19.0,73396.3,2.63,2.13,2.13,0,*7A
1528948914.29,61448,19.0,73400.8,2.63,2.13,2.13,0,*75
1528948915.54,61449,19.0,73398.3,2.63,2.01,2.05,0,*70
1528948916.78,61450,19.0,73404.3,2.63,2.05,2.05,0,*7C
1528948918.01,61451,19.0,73402.8,2.65,2.09,2.09,0,*7B
1528948919.25,61452,19.0,73396.8,2.65,2.17,2.09,0,*77
1528948920.5,61453,19.0,73396.8,2.63,2.01,2.01,0,*7F
1528948921.74,61454,19.0,73398.0,2.63,1.93,2.01,0,*70
1528948922.98,61455,19.0,73396.0,2.63,1.93,1.89,0,*72
1528948924.23,61456,19.0,73400.3,2.63,1.93,2.01,0,*72
1528948925.47,61457,19.0,73404.3,2.63,1.89,1.89,0,*7B
1528948926.71,61458,19.0,73396.0,2.63,1.89,1.93,0,*7F
1528948927.95,61459,19.0,73398.8,2.63,1.93,1.93,0,*75
1528948929.19,61460,19.0,73388.3,2.63,1.93,1.89,0,*74
1528948930.44,61461,19.0,73396.0,2.63,2.05,2.01,0,*7A
1528948931.69,61462,19.0,73392.5,2.63,1.93,2.05,0,*71
1528948932.94,61463,19.0,73388.3,2.63,2.01,2.01,0,*7C
1528948934.18,61464,19.0,73392.0,2.63,2.01,1.93,0,*73
1528948935.43,61465,19.0,73392.8,2.63,1.93,2.01,0,*72
1528948936.67,61466,19.0,73394.0,2.63,1.93,1.93,0,*79
1528948937.91,61467,19.0,73394.8,2.63,1.93,1.89,0,*73
1528948939.13,61468,19.0,73392.5,2.61,1.89,1.89,0,*75
1528948940.37,61469,19.0,73392.3,2.63,1.93,1.93,0,*76
1528948941.62,61470,19.0,73400.3,2.63,1.93,1.93,0,*7E
1528948942.86,61471,19.0,73394.8,2.63,1.93,1.97,0,*7B
1528948944.11,61472,19.0,73406.5,2.63,1.85,1.89,0,*70
1528948945.35,61473,19.0,73406.8,2.63,1.89,1.93,0,*76
1528948946.59,61474,19.0,73410.3,2.63,1.93,1.93,0,*7A
1528948947.84,61475,19.0,73412.5,2.63,2.01,2.05,0,*7F
1528948949.08,61476,19.0,73410.5,2.63,1.89,1.89,0,*78
1528948950.31,61477,19.0,73408.3,2.63,1.89,1.89,0,*79
1528948951.56,61478,19.0,73402.5,2.63,2.01,1.93,0,*7E
1528948952.78,61479,19.0,73410.5,2.61,1.93,1.93,0,*75
1528948954.0,61480,19.0,73412.3,2.61,2.13,2.05,0,*74
1528948955.23,61481,19.0,73406.3,2.61,2.09,2.13,0,*79
1528948956.46,61482,19.0,73406.3,2.61,2.13,2.13,0,*71
1528948957.68,61483,19.0,73406.8,2.61,2.05,2.05,0,*70
1528948958.93,61484,19.0,73406.0,2.63,2.05,2.05,0,*75
1528948960.16,61485,19.0,73406.3,2.65,2.05,2.09,0,*7E
1528948961.39,61486,19.0,73402.8,2.65,2.05,2.05,0,*71
1528948962.64,61487,19.0,73400.8,2.63,2.01,2.01,0,*76
1528948963.88,61488,19.0,73404.3,2.63,2.01,2.05,0,*7D
1528948965.11,61489,19.0,73410.5,2.65,2.09,2.09,0,*7E
1528948966.34,61490,19.0,73414.5,2.65,2.05,2.05,0,*76
1528948967.58,61491,19.0,73412.0,2.63,1.89,1.93,0,*7A
1528948968.81,61492,19.0,73408.0,2.63,1.79,1.85,0,*71
1528948969.99,61493,19.0,73404.3,2.65,1.79,1.83,0,*70
1528948971.21,61494,19.0,73404.5,2.65,1.89,1.93,0,*79
1528948972.46,61495,19.0,73412.0,2.63,1.93,2.01,0,*7D
1528948973.7,61496,19.0,73410.8,2.63,2.05,2.05,0,*76
1528948974.95,61497,19.0,73406.3,2.63,1.89,1.93,0,*7C
1528948976.19,61498,19.0,73410.3,2.63,2.01,2.01,0,*78
1528948977.44,61499,19.0,73418.3,2.63,2.01,2.05,0,*7D
1528948978.67,61500,19.0,73410.0,2.61,2.01,2.05,0,*7E
1528948979.91,61501,19.0,73416.3,2.63,2.05,2.05,0,*79
1528948981.15,61502,19.0,73412.3,2.63,1.89,1.89,0,*7A
1528948982.39,61503,19.0,73412.8,2.63,1.89,1.89,0,*7B
1528948983.63,61504,19.0,73410.0,2.63,1.89,1.93,0,*77
1528948984.88,61505,19.0,73400.0,2.63,2.05,2.05,0,*7D
1528948986.13,61506,19.0,73404.8,2.63,2.01,2.05,0,*7A
1528948987.37,61507,19.0,73410.0,2.63,2.05,2.05,0,*7F
1528948988.6,61508,19.0,73410.0,2.61,2.13,2.13,0,*72
1528948989.83,61509,19.0,73410.8,2.61,2.01,2.05,0,*77
1528948991.05,61510,19.0,73404.5,2.61,1.89,1.85,0,*77
1528948992.27,61511,19.0,73408.0,2.61,1.67,1.67,0,*7A
1528948993.49,61512,19.0,73406.8,2.61,1.67,1.67,0,*79
1528948994.72,61513,19.0,73410.3,2.63,1.79,1.85,0,*79
1528948995.97,61514,19.0,73410.8,2.63,1.85,1.89,0,*71
1528948997.22,61515,19.0,73410.8,2.59,1.85,1.85,0,*75
1528948998.4,61516,19.0,73410.8,2.61,1.75,1.79,0,*71
1528948999.63,61517,19.0,73412.3,2.61,1.85,1.85,0,*7C
1528949000.85,61518,19.0,73414.3,2.61,1.93,1.93,0,*73
1528949002.11,61519,19.0,73408.3,2.59,1.97,2.01,0,*75
1528949003.33,61520,19.0,73410.8,2.61,2.05,2.13,0,*7F
1528949004.56,61521,19.0,73412.5,2.61,2.05,2.13,0,*7E
1528949005.79,61522,19.0,73414.3,2.61,2.05,2.13,0,*7D
1528949007.02,61523,19.0,73408.3,2.61,2.13,2.13,0,*7B
1528949008.24,61524,19.0,73408.5,2.61,2.01,2.05,0,*78
1528949009.47,61525,19.0,73412.3,2.61,2.01,2.01,0,*7D
1528949010.72,61526,19.0,73414.3,2.59,2.01,2.01,0,*75
1528949011.94,61527,19.0,73414.3,2.61,2.01,2.01,0,*7F
1528949013.17,61528,19.0,73418.5,2.61,2.01,1.93,0,*78
1528949014.39,61529,19.0,73418.8,2.61,2.01,2.05,0,*75
1528949015.62,61530,19.0,73420.5,2.61,2.05,2.05,0,*79
1528949016.87,61531,19.0,73418.8,2.63,2.13,2.13,0,*7A
1528949018.12,61532,19.0,73414.3,2.63,2.13,2.13,0,*79
1528949019.38,61533,19.0,73416.3,2.63,2.17,2.17,0,*78
1528949020.63,61534,19.0,73414.5,2.63,2.13,2.13,0,*7F
1528949021.86,61535,19.0,73414.0,2.65,2.17,2.09,0,*77
1528949023.11,61536,19.0,73410.3,2.63,2.13,2.13,0,*7D
1528949024.37,61537,19.0,73420.5,2.63,2.17,2.17,0,*7C
1528949025.63,61538,19.0,73426.3,2.63,2.13,2.17,0,*77
1528949026.88,61539,19.0,73410.5,2.63,2.17,2.17,0,*72
1528949028.13,61540,19.0,73414.3,2.63,2.05,2.05,0,*7C
1528949029.36,61541,19.0,73422.8,2.65,2.09,2.17,0,*74
1528949030.62,61542,19.0,73422.0,2.63,2.13,2.13,0,*7E
1528949031.84,61543,19.0,73428.0,2.65,2.21,2.21,0,*79
1528949033.07,61544,19.0,73426.0,2.65,2.09,2.17,0,*71
1528949034.29,61545,19.0,73424.5,2.65,2.21,2.21,0,*7F
1528949035.49,61546,19.0,73426.8,2.65,2.27,2.21,0,*7A
1528949036.75,61547,19.0,73428.3,2.63,2.17,2.17,0,*7B
1528949037.95,61548,19.0,73422.0,2.65,2.17,2.31,0,*76
1528949039.13,61549,19.0,73416.5,2.65,2.27,2.27,0,*73
1528949040.37,61550,19.0,73424.8,2.65,2.17,2.17,0,*7B
1528949041.57,61551,19.0,73416.8,2.65,2.27,2.21,0,*7C
1528949042.79,61552,19.0,73412.3,2.65,2.21,2.21,0,*79
1528949044.04,61553,19.0,73420.5,2.63,2.13,2.17,0,*7A
1528949045.24,61554,19.0,73416.3,2.65,2.21,2.27,0,*79
1528949046.48,61555,19.0,73416.8,2.63,2.13,2.21,0,*79
1528949047.72,61556,19.0,73414.0,2.65,2.17,2.17,0,*7D
1528949048.95,61557,19.0,73410.0,2.65,2.09,2.05,0,*70
1528949050.18,61558,19.0,73414.5,2.65,1.97,1.97,0,*73
1528949051.43,61559,19.0,73414.0,2.63,1.93,2.01,0,*7C
1528949052.66,61560,19.0,73416.0,2.65,2.09,2.17,0,*77
1528949053.88,61561,19.0,73424.0,2.65,2.21,2.21,0,*79
1528949055.13,61562,19.0,73416.5,2.63,2.05,2.13,0,*7B
1528949056.36,61563,19.0,73420.8,2.65,2.17,2.09,0,*74
1528949057.61,61564,19.0,73420.8,2.63,2.05,2.01,0,*7E
1528949058.84,61565,19.0,73418.8,2.65,2.05,2.05,0,*7D
1528949060.06,61566,19.0,73416.3,2.65,1.93,1.93,0,*7E
1528949061.29,61567,19.0,73414.3,2.65,2.09,2.09,0,*7F
1528949062.52,61568,19.0,73416.8,2.65,2.01,2.01,0,*70
1528949063.75,61569,19.0,73428.5,2.65,2.05,2.05,0,*71
1528949064.98,61570,19.0,73422.3,2.63,1.89,1.89,0,*7F
1528949066.2,61571,19.0,73414.0,2.65,1.89,1.89,0,*78
1528949067.43,61572,19.0,73412.0,2.65,1.93,1.97,0,*7F
1528949068.67,61573,19.0,73410.8,2.63,2.01,2.01,0,*7C
1528949069.91,61574,19.0,73416.5,2.63,1.89,1.89,0,*7B
1528949071.14,61575,19.0,73418.5,2.65,2.09,2.05,0,*70
1528949072.38,61576,19.0,73420.8,2.63,1.89,1.89,0,*79
1528949073.62,61577,19.0,73422.3,2.63,1.85,1.89,0,*74
1528949074.82,61578,19.0,73422.3,2.63,1.75,1.79,0,*7B
1528949076.07,61579,19.0,73418.0,2.63,1.67,1.67,0,*76
1528949077.27,61580,19.0,73416.0,2.63,1.75,1.75,0,*70
1528949078.49,61581,19.0,73420.5,2.63,1.85,1.79,0,*72
1528949079.69,61582,19.0,73418.3,2.61,1.67,1.75,0,*73
1528949080.94,61583,19.0,73418.5,2.63,1.63,1.55,0,*76
1528949082.19,61584,19.0,73422.5,2.63,1.55,1.43,0,*73
1528949083.42,61585,19.0,73416.5,2.61,1.33,1.33,0,*77
1528949084.68,61586,19.0,73416.5,2.59,1.13,1.13,0,*7F
1528949085.94,61587,19.0,73414.8,2.59,1.13,1.13,0,*7E
1528949087.2,61588,19.0,73416.3,2.59,1.17,1.13,0,*75
1528949088.45,61589,19.0,73416.5,2.59,1.17,1.13,0,*74
1528949089.69,61590,19.0,73414.5,2.57,1.17,1.13,0,*72
1528949090.91,61591,19.0,73420.3,2.57,1.25,1.17,0,*76
1528949092.15,61592,19.0,73426.5,2.53,1.21,1.13,0,*71
1528949093.38,61593,19.0,73426.0,2.53,1.13,1.13,0,*71
1528949094.65,61594,19.0,73428.5,2.51,1.29,1.21,0,*7C
1528949095.85,61595,19.0,73428.8,2.49,1.41,1.33,0,*79
1528949097.12,61596,19.0,73424.0,2.51,1.21,1.21,0,*76
1528949098.37,61597,19.0,73426.8,2.51,1.33,1.29,0,*7C
1528949099.57,61598,19.0,73426.0,2.51,1.41,1.41,0,*78
1528949100.77,61599,19.0,73428.0,2.49,1.41,1.33,0,*75
1528949102.04,61600,19.0,73426.8,2.51,1.33,1.33,0,*7A
1528949103.27,61601,19.0,73426.0,2.49,1.09,1.09,0,*72
1528949104.48,61602,19.0,73424.8,2.49,0.95,0.95,0,*71
1528949105.71,61603,19.0,73430.0,2.49,0.95,0.91,0,*74
1528949106.95,61604,19.0,73438.0,2.47,0.75,0.75,0,*79
1528949108.17,61605,19.0,73432.5,2.45,0.87,0.79,0,*7B
1528949109.37,61606,19.0,73430.5,2.47,1.01,1.01,0,*7B
1528949110.6,61607,19.0,73430.8,2.45,1.25,1.25,0,*78
1528949111.84,61608,19.0,73424.0,2.45,1.37,1.37,0,*77
1528949113.07,61609,19.0,73420.5,2.45,1.37,1.29,0,*79
1528949114.3,61610,19.0,73416.8,2.45,1.25,1.25,0,*7E
1528949115.51,61611,19.0,73414.5,2.43,1.01,1.01,0,*79
1528949116.74,61612,19.0,73410.8,2.43,0.91,0.97,0,*7C
1528949117.99,61613,19.0,73408.5,2.43,0.91,0.87,0,*7C
1528949119.17,61614,19.0,73410.0,2.41,0.97,0.97,0,*7E
1528949120.35,61615,19.0,73408.8,2.41,1.01,1.01,0,*7F
1528949121.52,61616,19.0,73410.5,2.41,0.97,0.97,0,*7C
1528949122.75,61617,19.0,73410.0,2.41,0.83,0.87,0,*79
1528949123.99,61618,19.0,73404.8,2.39,0.87,0.95,0,*7E
1528949125.23,61619,19.0,73404.5,2.39,0.95,0.83,0,*7B
1528949126.42,61620,19.0,73396.8,2.39,0.97,0.97,0,*76
1528949127.65,61621,19.0,73392.5,2.39,1.05,1.17,0,*74
1528949128.92,61622,19.0,73396.3,2.39,1.29,1.33,0,*7F
1528949130.14,61623,19.0,73404.5,2.37,1.47,1.47,0,*7B
1528949131.39,61624,19.0,73412.0,2.39,1.51,1.51,0,*72
1528949132.62,61625,19.0,73408.3,2.37,1.51,1.51,0,*7D
1528949133.84,61626,19.0,73402.5,2.37,1.59,1.51,0,*76
1528949135.07,61627,19.0,73406.5,2.37,1.59,1.59,0,*7F
1528949136.32,61628,19.0,73408.5,2.39,1.63,1.63,0,*7E
1528949137.57,61629,19.0,73406.8,2.39,1.63,1.63,0,*7F
1528949138.79,61630,19.0,73408.8,2.37,1.59,1.59,0,*79
1528949140.01,61631,19.0,73404.3,2.39,1.79,1.71,0,*7E
1528949141.22,61632,19.0,73410.8,2.39,1.79,1.79,0,*75
1528949142.47,61633,19.0,73404.5,2.39,1.71,1.71,0,*74
1528949143.71,61634,19.0,73408.3,2.39,1.67,1.67,0,*73
1528949144.96,61635,19.0,73408.5,2.39,1.67,1.67,0,*72
1528949146.21,61636,19.0,73412.0,2.39,1.51,1.55,0,*75
1528949147.46,61637,19.0,73412.0,2.39,1.43,1.43,0,*70
1528949148.68,61638,19.0,73408.8,2.39,1.41,1.43,0,*7D
1528949149.93,61639,19.0,73406.8,2.39,1.51,1.55,0,*7A
1528949151.18,61640,19.0,73406.3,2.39,1.63,1.63,0,*70
1528949152.43,61641,19.0,73412.5,2.39,1.63,1.67,0,*75
1528949153.67,61642,19.0,73410.3,2.39,1.67,1.71,0,*75
1528949154.92,61643,19.0,73408.0,2.39,1.71,1.67,0,*74
1528949156.17,61644,19.0,73414.5,2.39,1.71,1.71,0,*74
1528949157.41,61645,19.0,73416.5,2.41,1.85,1.85,0,*7A
1528949158.65,61646,19.0,73412.8,2.41,1.85,1.85,0,*79
1528949159.89,61647,19.0,73412.8,2.41,1.85,1.85,0,*78
1528949161.07,61648,19.0,73412.5,2.41,1.83,1.83,0,*77
1528949162.31,61649,19.0,73414.3,2.41,1.85,1.85,0,*76
1528949163.49,61650,19.0,73416.5,2.41,1.83,1.83,0,*7E
1528949164.7,61651,19.0,73412.8,2.41,1.75,1.71,0,*7B
1528949165.96,61652,19.0,73410.8,2.43,1.93,1.85,0,*79
1528949167.21,61653,19.0,73412.0,2.43,1.93,1.93,0,*7F
1528949168.44,61654,19.0,73414.0,2.41,1.93,1.93,0,*7A
1528949169.7,61655,19.0,73414.8,2.43,1.85,1.93,0,*7E
1528949170.91,61656,19.0,73414.5,2.43,1.83,1.83,0,*7A
1528949172.12,61657,19.0,73412.8,2.43,1.75,1.75,0,*7B
1528949173.32,61658,19.0,73412.5,2.43,1.83,1.75,0,*7D
1528949174.58,61659,19.0,73412.8,2.43,1.85,1.93,0,*72
1528949175.84,61660,19.0,73412.3,2.43,1.97,1.97,0,*7F
1528949177.09,61661,19.0,73414.0,2.43,1.93,1.97,0,*7A
1528949178.36,61662,19.0,73416.3,2.43,1.85,1.85,0,*7D
1528949179.57,61663,19.0,73416.0,2.43,1.75,1.75,0,*7C
1528949180.78,61664,19.0,73416.3,2.43,1.83,1.75,0,*72
1528949182.01,61665,19.0,73420.8,2.45,1.85,1.85,0,*7C
1528949183.23,61666,19.0,73416.0,2.45,1.89,1.89,0,*7F
1528949184.46,61667,19.0,73418.0,2.45,1.97,1.97,0,*7E
1528949185.69,61668,19.0,73414.3,2.45,1.97,1.97,0,*71
1528949186.91,61669,19.0,73404.3,2.45,1.97,1.97,0,*70
1528949188.14,61670,19.0,73410.0,2.45,1.97,1.97,0,*78
1528949189.37,61671,19.0,73410.5,2.45,1.97,1.97,0,*79
1528949190.6,61672,19.0,73414.8,2.45,2.01,2.01,0,*7A
1528949191.85,61673,19.0,73414.0,2.47,1.97,1.97,0,*79
1528949193.07,61674,19.0,73414.0,2.45,2.01,1.97,0,*70
1528949194.3,61675,19.0,73414.0,2.45,1.97,2.01,0,*71
1528949195.55,61676,19.0,73412.3,2.47,2.09,2.01,0,*74
1528949196.78,61677,19.0,73416.3,2.45,2.09,2.09,0,*7F
1528949198.03,61678,19.0,73412.5,2.47,2.09,2.09,0,*72
1528949199.27,61679,19.0,73416.0,2.45,2.01,2.13,0,*72
1528949200.52,61680,19.0,73412.5,2.47,2.09,2.13,0,*7E
1528949201.77,61681,19.0,73416.5,2.47,1.97,2.01,0,*78
1528949203.03,61682,19.0,73420.5,2.47,2.01,2.01,0,*77
1528949204.28,61683,19.0,73424.0,2.47,2.01,2.09,0,*7E
1528949205.53,61684,19.0,73428.3,2.47,2.09,2.01,0,*79
1528949206.76,61685,19.0,73418.5,2.49,2.01,1.93,0,*76
1528949207.98,61686,19.0,73416.0,2.49,2.05,2.05,0,*7D
1528949209.21,61687,19.0,73420.0,2.49,2.05,2.05,0,*7C
1528949210.44,61688,19.0,73418.8,2.49,2.01,2.05,0,*77
1528949211.69,61689,19.0,73420.3,2.51,2.05,2.05,0,*7B
1528949212.92,61690,19.0,73422.3,2.49,2.05,2.05,0,*7A
1528949214.15,61691,19.0,73416.0,2.49,2.01,2.05,0,*7F
1528949215.38,61692,19.0,73414.8,2.49,2.13,2.13,0,*78
1528949216.62,61693,19.0,73416.3,2.49,2.05,2.13,0,*7E
1528949217.85,61694,19.0,73418.0,2.49,2.05,2.13,0,*79
1528949219.08,61695,19.0,73410.0,2.49,2.01,2.05,0,*7B
1528949220.33,61696,19.0,73410.5,2.51,2.05,2.05,0,*75
1528949221.56,61697,19.0,73414.5,2.49,2.05,2.13,0,*7A
1528949222.81,61698,19.0,73414.3,2.51,2.13,2.05,0,*7C
1528949224.06,61699,19.0,73412.0,2.51,2.01,2.01,0,*7A
1528949225.29,61700,19.0,73408.0,2.49,2.01,2.01,0,*72
1528949226.52,61701,19.0,73408.5,2.49,2.01,2.05,0,*77
1528949227.77,61702,19.0,73416.8,2.51,2.01,2.01,0,*79
1528949229.03,61703,19.0,73418.3,2.51,2.01,2.01,0,*78
1528949230.27,61704,19.0,73412.8,2.51,1.93,1.93,0,*7F
1528949231.52,61705,19.0,73410.8,2.51,1.93,1.89,0,*75
1528949232.76,61706,19.0,73412.3,2.51,1.93,1.89,0,*76
1528949234.01,61707,18.94,73418.3,2.51,1.93,1.89,0,*77
1528949235.26,61708,19.0,73422.5,2.51,2.01,2.05,0,*77
1528949236.51,61709,19.0,73416.0,2.51,2.01,2.01,0,*72
1528949237.76,61710,19.0,73416.5,2.51,1.93,2.01,0,*72
1528949238.99,61711,19.0,73418.8,2.49,2.01,2.05,0,*76
1528949240.25,61712,19.0,73420.0,2.51,2.05,2.05,0,*78
1528949241.5,61713,19.0,73414.8,2.51,2.13,2.17,0,*7D
1528949242.73,61714,19.0,73420.0,2.49,2.05,2.05,0,*77
1528949243.98,61715,19.0,73424.0,2.51,2.01,2.05,0,*7B
1528949245.24,61716,19.0,73420.3,2.51,2.13,2.17,0,*78
1528949246.49,61717,19.0,73422.5,2.51,2.13,2.13,0,*7D
1528949247.75,61718,19.0,73414.5,2.51,2.01,2.01,0,*72
1528949249.0,61719,19.0,73418.8,2.51,2.01,2.05,0,*77
1528949250.25,61720,19.0,73416.5,2.51,2.05,2.01,0,*7D
1528949251.5,61721,19.0,73420.8,2.51,2.05,2.05,0,*78
1528949252.75,61722,19.0,73426.8,2.51,2.05,2.05,0,*7B
1528949253.98,61723,19.0,73426.8,2.53,2.05,2.09,0,*74
1528949255.23,61724,19.0,73424.8,2.51,2.05,2.05,0,*7D
1528949256.48,61725,19.0,73420.8,2.51,2.05,2.05,0,*7C
1528949257.73,61726,19.0,73422.5,2.51,2.05,2.05,0,*7F
1528949258.99,61727,19.0,73422.0,2.51,2.01,2.05,0,*7A
1528949260.24,61728,19.0,73422.5,2.51,2.05,2.05,0,*71
1528949261.48,61729,19.0,73426.0,2.53,2.17,2.17,0,*72
1528949262.72,61730,19.0,73426.3,2.53,2.17,2.17,0,*7A
1528949263.94,61731,19.0,73424.3,2.53,2.13,2.09,0,*70
1528949265.17,61732,19.0,73422.0,2.57,2.21,2.25,0,*78
1528949266.39,61733,19.0,73422.5,2.53,2.21,2.17,0,*7C
1528949267.63,61734,19.0,73426.3,2.53,2.09,2.17,0,*71
1528949268.85,61735,19.0,73422.3,2.53,2.05,2.05,0,*7F
1528949270.08,61736,19.0,73420.8,2.57,2.13,2.13,0,*78
1528949271.31,61737,19.0,73420.3,2.53,2.05,2.09,0,*71
1528949272.54,61738,19.0,73426.8,2.53,2.09,2.05,0,*7E
1528949273.77,61739,19.0,73426.3,2.53,2.09,2.17,0,*7C
1528949275.0,61740,19.0,73430.0,2.57,2.09,2.13,0,*72
1528949276.23,61741,19.0,73422.3,2.53,2.09,2.09,0,*7C
1528949277.46,61742,19.0,73422.8,2.57,2.09,2.09,0,*7B
1528949278.68,61743,19.0,73420.8,2.57,2.13,2.13,0,*7A
1528949279.91,61744,19.0,73418.8,2.53,2.05,2.05,0,*79
1528949281.13,61745,19.0,73422.5,2.57,2.09,1.97,0,*78
1528949282.37,61746,19.0,73420.5,2.53,1.97,2.09,0,*7F
1528949283.59,61747,19.0,73424.5,2.53,2.05,2.09,0,*76
1528949284.82,61748,19.0,73416.5,2.53,2.05,2.09,0,*79
1528949286.05,61749,19.0,73414.5,2.53,2.05,2.09,0,*78
1528949287.28,61750,19.0,73412.8,2.53,2.05,2.09,0,*70
1528949288.51,61751,19.0,73418.8,2.57,2.13,2.13,0,*79
1528949289.73,61752,19.0,73420.8,2.53,2.09,2.09,0,*7E
1528949290.96,61753,19.0,73418.5,2.57,2.09,2.13,0,*70
1528949292.19,61754,19.0,73416.0,2.57,2.09,2.13,0,*77
1528949293.42,61755,19.0,73416.3,2.57,2.09,2.09,0,*7D
1528949294.65,61756,19.0,73416.5,2.53,2.05,2.05,0,*7A
1528949295.87,61757,19.0,73420.0,2.53,2.05,1.93,0,*77
1528949297.09,61758,19.0,73416.3,2.57,2.01,1.97,0,*7C
1528949298.32,61759,19.0,73416.3,2.57,2.01,2.01,0,*71
1528949299.55,61760,19.0,73420.5,2.57,1.97,2.01,0,*77
1528949300.77,61761,19.0,73428.5,2.57,2.01,2.09,0,*72
1528949302.0,61762,19.0,73416.8,2.57,2.01,1.97,0,*75
1528949303.22,61763,19.0,73418.3,2.57,1.97,1.97,0,*78
1528949304.45,61764,19.0,73416.3,2.57,2.01,2.01,0,*7F
1528949305.67,61765,19.0,73416.8,2.53,1.93,1.93,0,*7A
1528949306.9,61766,19.0,73418.5,2.57,2.01,2.01,0,*7D
1528949308.13,61767,19.0,73414.8,2.57,2.09,2.13,0,*77
1528949309.34,61768,19.0,73414.5,2.57,2.21,2.21,0,*73
1528949310.57,61769,19.0,73416.5,2.53,2.09,2.09,0,*76
1528949311.8,61770,19.0,73416.5,2.57,2.09,2.13,0,*71
1528949313.03,61771,19.0,73424.5,2.57,2.13,2.13,0,*7B
1528949314.26,61772,19.0,73406.0,2.57,2.13,2.13,0,*78
1528949315.49,61773,19.0,73404.0,2.57,2.05,2.09,0,*75
1528949316.71,61774,19.0,73400.0,2.57,2.01,2.09,0,*76
1528949317.94,61775,19.0,73400.5,2.57,2.01,2.01,0,*7F
1528949319.17,61776,19.0,73400.5,2.57,2.01,2.13,0,*7F
1528949320.4,61777,19.0,73404.0,2.57,2.13,2.09,0,*76
1528949321.62,61778,19.0,73400.5,2.57,2.13,2.09,0,*79
1528949322.85,61779,19.0,73400.8,2.57,2.01,2.09,0,*7B
1528949324.08,61780,19.0,73400.8,2.57,2.13,2.13,0,*75
1528949325.31,61781,19.0,73408.5,2.57,2.01,2.13,0,*77
1528949326.54,61782,19.0,73402.0,2.57,2.13,2.13,0,*77
1528949327.77,61783,19.0,73408.8,2.53,2.09,2.09,0,*72
1528949329.0,61784,19.0,73410.8,2.57,2.13,2.13,0,*71
1528949330.22,61785,19.0,73410.8,2.57,2.13,2.09,0,*7B
1528949331.45,61786,19.0,73412.8,2.57,1.97,1.97,0,*73
1528949332.71,61787,19.0,73404.3,2.59,1.85,1.85,0,*7C
1528949333.93,61788,19.0,73412.3,2.57,1.97,2.01,0,*71
1528949335.16,61789,19.0,73414.3,2.57,2.09,2.13,0,*77
1528949336.41,61790,19.0,73414.0,2.59,2.09,2.09,0,*7A
1528949337.64,61791,19.0,73414.8,2.57,2.09,2.13,0,*7E
1528949338.87,61792,19.0,73412.3,2.57,2.09,2.09,0,*76
1528949340.09,61793,19.0,73412.8,2.57,2.09,2.01,0,*7F
1528949341.31,61794,19.0,73408.3,2.57,1.89,1.89,0,*70
1528949342.56,61795,19.0,73410.0,2.59,2.01,1.89,0,*7C
1528949343.81,61796,19.0,73412.8,2.59,1.97,2.01,0,*70
1528949345.03,61797,19.0,73418.8,2.57,2.01,2.01,0,*73
1528949346.25,61798,19.0,73416.0,2.57,1.89,1.97,0,*73
1528949347.48,61799,19.0,73422.3,2.57,1.97,1.97,0,*7D
1528949348.7,61800,19.0,73418.8,2.57,2.01,2.01,0,*72